Regional Weather Roundup
Issued by NWS

Home | Current Version | Previous Version | Graphics & Text | Print | Product List | Glossary Off
Versions: 1 2 3 4 5 6 7 8 9 10 11 12 13 14 15 16 17 18 19 20 21 22 23 24 25 26 27 28 29 30 31 32 33 34 35 36 37 38 39 40 41 42 43 44 45 46 47 48 49 50

963
ASUS43 KDTX 230310
RWRMI
MICHIGAN HOURLY REGIONAL WEATHER ROUNDUP
NATIONAL WEATHER SERVICE DETROIT/PONTIAC MI
ISSUED BY NATIONAL WEATHER SERVICE GRAND RAPIDS MI
1100 PM EDT THU JUN 22 2017

NOTE: "FAIR" INDICATES FEW OR NO CLOUDS BELOW 12,000 FEET WITH NO
SIGNIFICANT WEATHER AND/OR OBSTRUCTION TO VISIBILITY.

MIZ047>049-052>055-059>063-066>070-074>076-081>083-230400-
SOUTHEAST LOWER MICHIGAN

CITY           SKY/WX    TMP DP  RH WIND       PRES   REMARKS
ADRIAN         MOCLDY    76  68  76 SW10      29.82R
ALMA           CLOUDY    71  70  97 SW8       29.74S
ANN ARBOR      CLOUDY    71  70  96 SE7       29.80
BAD AXE        RAIN      71  69  94 SW12      29.76R
DETROIT CITY   MOCLDY    73  71  93 S9        29.79F
DETROIT        MOCLDY    74  71  91 S10       29.81S
FLINT          CLOUDY    72  68  87 SW15G21   29.78R THUNDER
GROSSE ILE     CLOUDY    73  70  91 S8        29.80F
HILLSDALE      PTCLDY    73  64  73 S9G18     29.81S
HOWELL         HVY RAIN  71  68  90 W6        29.78F

CITY           SKY/WX    TMP DP  RH WIND       PRES   REMARKS
JACKSON        CLOUDY    74  70  87 S8        29.79S
LANSING        CLOUDY    73  68  84 S7        29.76F
MASON          CLOUDY    73  70  93 S6        29.78S
MONROE         CLOUDY    74  70  86 S6        29.81F
MT. CLEMENS    CLOUDY    73  73 100 S9        29.78S
PONTIAC        TSTM      72  71  97 S7        29.79S
PORT HOPE        N/A     75  66  73 S3        29.71F
PORT HURON     RAIN      70  66  88 S5        29.78F
TRI CITIES     LGT RAIN  73  72  96 W6        29.74S
YPSILANTI      CLOUDY    74  72  93 S6        29.81S
$$
MIZ043>046-050>051-056>058-064>065-071>073-077>080-230400-
SOUTHWEST LOWER MICHIGAN

CITY           SKY/WX    TMP DP  RH WIND       PRES   REMARKS
BATTLE CREEK   MOCLDY    76  69  79 SW16      29.78S
BENTON HARBOR  CLOUDY    79  68  69 S10       29.75R
BIG RAPIDS     LGT RAIN  71  68  90 W7        29.71F
COLDWATER      PTCLDY    74  69  85 S7        29.79S
HOLLAND        CLOUDY    75  70  84 SW10      29.75R
GRAND RAPIDS   CLOUDY    74  72  93 S10       29.74R
KALAMAZOO      MOCLDY    77  68  73 S13       29.77R
MARSHALL       PTCLDY    75  72  89 S6        29.78S
MOUNT PLEASANT RAIN      70  69  96 S6        29.73F
MUSKEGON       CLOUDY    76  69  79 SW15G22   29.72S THUNDER
STURGIS        PTCLDY    73  70  89 S8        29.79S
$$
MIZ016>042-230400-
NORTHERN LOWER MICHIGAN

CITY           SKY/WX    TMP DP  RH WIND       PRES   REMARKS
ALPENA         CLOUDY    68  68 100 CALM      29.71S
BEAVER ISLAND  CLOUDY    63  63 100 W7        29.70S
BELLAIRE       CLOUDY    67  64  88 CALM      29.69F
CADILLAC       CLOUDY    67  64  92 CALM      29.73F
CHARLEVOIX     CLOUDY    64  64 100 SW5       29.74S
GAYLORD        CLOUDY    67  63  87 W9        29.73S
HOUGHTON LAKE  CLOUDY    71  62  73 SW5       29.74S
MANISTEE       HVY RAIN  66  65  96 VRB3      29.71S FOG
OSCODA         CLOUDY    71  68  90 SW6       29.71R
PELLSTON       MOCLDY    63  61  93 SE5       29.70F
TRAVERSE CITY  CLOUDY    69  63  81 CALM      29.68F
LUDINGTON      HVY RAIN  67  66  97 NE5       29.71R
$$
MIZ007>008-015-230400-
EASTERN UPPER MICHIGAN

CITY           SKY/WX    TMP DP  RH WIND       PRES   REMARKS
KINROSS        CLOUDY    63  63 100 W3        29.69F
MACKINAC ISLAN CLOUDY    61  61 100 SW9       29.69F
NEWBERRY       CLOUDY    63  62  97 SW5       29.68F
S. S. MARIE    CLOUDY    65  63  93 W5        29.68S
$$
MIZ004>006-011>014-085-230400-
CENTRAL UPPER MICHIGAN

CITY           SKY/WX    TMP DP  RH WIND       PRES   REMARKS
MANISTIQUE     FOG       61  58  90 CALM      29.68F VSB 1/2
ESCANABA       CLOUDY    67  66  97 CALM      29.67F
MENOMINEE      FOG       64  64 100 CALM      29.69F VSB 3/4
SAWYER-GWINN   CLOUDY    62  60  93 W5        29.70R
$$
MIZ001>003-009>011-084-230400-
WESTERN UPPER MICHIGAN

CITY           SKY/WX    TMP DP  RH WIND       PRES   REMARKS
IRON MOUNTAIN  MOCLDY    63  59  87 CALM      29.69R
HOUGHTON       CLEAR     56  50  80 CALM      29.65S
COPPER HARBOR    N/A     66  45  46 VRB3      29.63S
IRONWOOD       CLEAR     63  55  75 SW7       29.70R
$$

ABBREVIATIONS USED IN REMARKS
   TC - TEMPERATURE IN CELSIUS
  WCI - WIND CHILL INDEX
   HX - HEAT INDEX
  VSB - VISIBILITY





USA.gov is the U.S. government's official web portal to all federal, state and local government web resources and services.